ASL765 LYBE-UUEE

Flight info

Callsign ASL765
Flight time N/A
Altitude 40000
Route TISAK M173 PARAK/N0460F350 DCT KOVEK/N0459F360 DCT PITOK DCT KELEL/N0457F370 DCT LOGDA M866 GERVI M857 BOKSU DCT LAUGA DCT IGORO/K0846F370 M864 DIPOP DIPOP3E
Aircraft A319/M-SDE3FGHIRWY/LB1

Departure

Time 2026-04-30 19:18
Airport Belgrade Nikola Tesla Airport (LYBE)

Arrival

Time N/A
Airport Sheremetyevo International Airport (UUEE)
Time Latitude Longitude Altitude Speed Heading
2026-04-30 18:51 44.82058 20.29367 307 ft 0 kts 299°
2026-04-30 19:10 44.82057 20.29372 290 ft 2 kts 299°
2026-04-30 19:10 44.82040 20.29411 307 ft 2 kts 302°
2026-04-30 19:11 44.82031 20.29430 304 ft 2 kts 310°
2026-04-30 19:11 44.82006 20.29446 306 ft 1 kts 32°
2026-04-30 19:11 44.82005 20.29445 306 ft 0 kts 32°
2026-04-30 19:13 44.82046 20.29481 307 ft 12 kts 32°
2026-04-30 19:13 44.82148 20.29571 308 ft 20 kts 33°
2026-04-30 19:14 44.82170 20.29723 308 ft 20 kts 120°
2026-04-30 19:14 44.82096 20.29894 307 ft 22 kts 121°
2026-04-30 19:14 44.82011 20.30084 307 ft 21 kts 122°
2026-04-30 19:14 44.81932 20.30262 306 ft 22 kts 122°
2026-04-30 19:15 44.81847 20.30451 309 ft 24 kts 122°
2026-04-30 19:15 44.81658 20.30874 307 ft 28 kts 122°
2026-04-30 19:15 44.81551 20.31114 304 ft 30 kts 122°
2026-04-30 19:16 44.81437 20.31370 305 ft 31 kts 122°
2026-04-30 19:16 44.81319 20.31633 307 ft 32 kts 122°
2026-04-30 19:16 44.81073 20.32193 305 ft 29 kts 120°
2026-04-30 19:17 44.81101 20.32299 305 ft 12 kts 14°
2026-04-30 19:17 44.81296 20.32148 309 ft 20 kts 304°
2026-04-30 19:17 44.81445 20.31812 308 ft 70 kts 302°
2026-04-30 19:18 44.81975 20.30620 307 ft 144 kts 302°
2026-04-30 19:18 44.82985 20.28408 1175 ft 162 kts 305°
2026-04-30 19:18 44.83766 20.27311 1682 ft 166 kts 338°
2026-04-30 19:19 44.84954 20.26948 1980 ft 186 kts 355°
2026-04-30 19:19 44.86320 20.26703 2396 ft 209 kts 354°
2026-04-30 19:19 44.89334 20.26102 3984 ft 223 kts 354°
2026-04-30 19:20 44.90889 20.25789 4810 ft 231 kts 356°
2026-04-30 19:20 44.92561 20.25610 5391 ft 248 kts 359°
2026-04-30 19:20 44.96095 20.25413 7108 ft 258 kts
2026-04-30 19:21 44.97884 20.25328 7919 ft 263 kts 360°
2026-04-30 19:21 45.01584 20.25136 9667 ft 269 kts 359°
2026-04-30 19:22 45.05360 20.24926 11256 ft 275 kts 359°
2026-04-30 19:22 45.11181 20.24580 13541 ft 283 kts 358°
2026-04-30 19:23 45.17190 20.24217 15600 ft 292 kts 358°
2026-04-30 19:24 45.21299 20.23982 16921 ft 298 kts 358°
2026-04-30 19:24 45.23351 20.23861 17558 ft 300 kts 358°
2026-04-30 19:24 45.27568 20.23608 18820 ft 306 kts 358°
2026-04-30 19:25 45.34041 20.23219 20476 ft 315 kts 358°
2026-04-30 19:26 45.38453 20.22958 21569 ft 320 kts 358°
2026-04-30 19:26 45.42176 20.22734 22434 ft 324 kts 356°
2026-04-30 19:26 45.44460 20.22475 22662 ft 336 kts 354°
2026-04-30 19:27 45.49286 20.21606 22929 ft 363 kts 352°
2026-04-30 19:27 45.54459 20.20580 23210 ft 387 kts 352°
2026-04-30 19:28 45.57165 20.20072 23361 ft 397 kts 353°
2026-04-30 19:28 45.62787 20.19065 23679 ft 415 kts 353°
2026-04-30 19:29 45.68571 20.18041 24309 ft 421 kts 353°
2026-04-30 19:29 45.71485 20.17520 24645 ft 423 kts 353°
2026-04-30 19:30 45.80309 20.15939 25646 ft 429 kts 353°
2026-04-30 19:30 45.86253 20.14883 26277 ft 432 kts 353°
2026-04-30 19:31 45.92245 20.13801 26884 ft 436 kts 353°
2026-04-30 19:31 45.95260 20.13254 27161 ft 438 kts 353°
2026-04-30 19:31 46.01337 20.12157 27755 ft 441 kts 353°
2026-04-30 19:32 46.04383 20.11605 28144 ft 440 kts 353°
2026-04-30 19:32 46.07418 20.11054 28567 ft 439 kts 353°
2026-04-30 19:32 46.10445 20.10504 28984 ft 438 kts 353°
2026-04-30 19:32 46.13431 20.09962 29411 ft 437 kts 353°
2026-04-30 19:33 46.16464 20.09718 29834 ft 436 kts
2026-04-30 19:33 46.19479 20.10139 30264 ft 436 kts
2026-04-30 19:33 46.22468 20.10856 30651 ft 435 kts
2026-04-30 19:33 46.25453 20.11564 31014 ft 434 kts
2026-04-30 19:34 46.28434 20.12267 31356 ft 434 kts
2026-04-30 19:34 46.31412 20.12967 31689 ft 433 kts
2026-04-30 19:34 46.37364 20.14372 32350 ft 433 kts
2026-04-30 19:35 46.40334 20.15073 32683 ft 433 kts
2026-04-30 19:35 46.43305 20.15777 33036 ft 432 kts
2026-04-30 19:35 46.46276 20.16482 33383 ft 432 kts
2026-04-30 19:35 46.49240 20.17187 33718 ft 431 kts
2026-04-30 19:36 46.52201 20.17894 34049 ft 431 kts
2026-04-30 19:36 46.55165 20.18602 34370 ft 431 kts
2026-04-30 19:36 46.61084 20.20018 34896 ft 431 kts
2026-04-30 19:37 46.64045 20.20727 35166 ft 431 kts
2026-04-30 19:37 46.67001 20.21436 35433 ft 431 kts
2026-04-30 19:37 46.69961 20.22149 35685 ft 431 kts
2026-04-30 19:37 46.72924 20.22863 35926 ft 431 kts
2026-04-30 19:38 46.75885 20.23578 36165 ft 431 kts
2026-04-30 19:38 46.78846 20.24292 36394 ft 431 kts
2026-04-30 19:38 46.81771 20.24993 36616 ft 432 kts
2026-04-30 19:38 46.84739 20.25702 36842 ft 432 kts
2026-04-30 19:39 46.87762 20.26426 37077 ft 431 kts
2026-04-30 19:39 46.90664 20.27124 37287 ft 431 kts
2026-04-30 19:39 46.93628 20.27841 37492 ft 432 kts
2026-04-30 19:39 46.96595 20.28561 37690 ft 432 kts
2026-04-30 19:40 46.99562 20.29282 37886 ft 432 kts
2026-04-30 19:40 47.02526 20.30006 38080 ft 432 kts
2026-04-30 19:40 47.05489 20.30726 38274 ft 432 kts
2026-04-30 19:40 47.08460 20.31442 38346 ft 433 kts
2026-04-30 19:41 47.14405 20.32875 38355 ft 432 kts
2026-04-30 19:41 47.20334 20.34326 38355 ft 432 kts
2026-04-30 19:42 47.26279 20.35798 38355 ft 432 kts
2026-04-30 19:42 47.32171 20.37247 38353 ft 431 kts
2026-04-30 19:43 47.38100 20.38703 38358 ft 431 kts
2026-04-30 19:44 47.46994 20.40893 38353 ft 431 kts
2026-04-30 19:44 47.52908 20.42361 38360 ft 431 kts
2026-04-30 19:45 47.58825 20.43829 38363 ft 430 kts
2026-04-30 19:45 47.64727 20.45292 38360 ft 430 kts
2026-04-30 19:46 47.70636 20.46768 38369 ft 430 kts 10°
2026-04-30 19:46 47.76498 20.48227 38365 ft 429 kts
2026-04-30 19:47 47.82393 20.49677 38366 ft 429 kts
2026-04-30 19:47 47.88339 20.49317 38369 ft 431 kts 351°
2026-04-30 19:48 47.94231 20.47696 38369 ft 430 kts 351°
2026-04-30 19:48 48.00130 20.46081 38367 ft 430 kts 351°
2026-04-30 19:49 48.06034 20.44469 38373 ft 430 kts 351°
2026-04-30 19:49 48.14834 20.42054 38376 ft 430 kts 352°
2026-04-30 19:50 48.20719 20.40428 38383 ft 428 kts 352°
2026-04-30 19:50 48.26575 20.38812 38380 ft 427 kts 352°
2026-04-30 19:51 48.32430 20.37194 38378 ft 427 kts 352°
2026-04-30 19:51 48.38299 20.35862 38373 ft 426 kts 355°
2026-04-30 19:52 48.44188 20.34811 38375 ft 426 kts 355°
2026-04-30 19:52 48.50069 20.33748 38371 ft 426 kts 355°
2026-04-30 19:53 48.55950 20.32611 38373 ft 426 kts 354°
2026-04-30 19:53 48.61828 20.31439 38378 ft 425 kts 355°
2026-04-30 19:54 48.67695 20.30270 38385 ft 425 kts 355°
2026-04-30 19:54 48.73555 20.29107 38385 ft 425 kts 355°
2026-04-30 19:55 48.79415 20.27937 38383 ft 424 kts 355°